Flag for South Africa Weather past 2 weeks in Port Elizabeth, South Africa

Now
64 °F

Clear.


Feels Like: 64 °F
Forecast: 59 / 71 °F
Wind: 15 mph from West

Location: Port Elizabeth Airport

Current Time: Mar 27, 2015 at 2:22:32 AM

Latest Report: Mar 27, 2015 at 2:00 AM


Visibility: 10 mi

Pressure: 30.07 "Hg

Humidity: 83%

Dew point: 59 °F

Location of Port ElizabethLocation

Historic Weather in Port Elizabeth — Graph

°F

Port Elizabeth temperature yesterday

Maximum temperature yesterday: 77 °F (at 11:00 AM)
Minimum temperature yesterday: 64 °F (at 5:00 PM)
Average temperature yesterday: 69 °F

Past Weeks' High & Low Weather Summary

 TemperatureHumidityPressure
High93 °F (Mar 12, 1:00 PM)94% (Mar 12, 5:00 AM)30.24 "Hg (Mar 12, 5:00 AM)
Low59 °F (Mar 25, 6:00 AM)34% (Mar 12, 1:00 PM)29.65 "Hg (Mar 18, 3:00 PM)
Average69 °F78%29.96 "Hg
* Reported Mar 12 1:10 AM — Mar 27 1:00 AM, Port Elizabeth, Weather by CustomWeather, © 2015

Note: Actual official high and low records may vary slightly from our data, if they occured in-between our weather recording intervals... More about our weather records

Advertising

Port Elizabeth weather history for previous 24 hours

 ConditionsComfort  
Time TempWeatherWind HumidityBarometerVisibility
1:00 AM
Fri, Mar 27
64 °FClear.16 mph83%30.07 "Hg10 mi
12:00 AM64 °FClear.16 mph83%30.07 "Hg10 mi
11:00 PM
Thu, Mar 26
64 °FClear.18 mph83%30.07 "Hg10 mi
10:00 PM64 °FPassing clouds.18 mph83%30.07 "HgN/A
9:00 PM66 °FPassing clouds.15 mph83%30.07 "HgN/A
8:00 PM66 °FClear.17 mph83%30.04 "Hg10 mi
7:00 PM66 °FPassing clouds.20 mph83%30.04 "HgN/A
6:00 PM66 °FClear.21 mph83%30.01 "Hg10 mi
5:01 PM64 °FPassing clouds.30 mph88%29.95 "HgN/A
5:00 PM64 °FPassing clouds.30 mph88%29.95 "HgN/A
4:00 PM68 °FSunny.25 mph78%29.95 "Hg10 mi
3:00 PM72 °FScattered clouds.25 mph78%29.95 "HgN/A
2:51 PM72 °FScattered clouds.25 mph78%29.98 "HgN/A
2:00 PM68 °FSprinkles. Partly sunny.21 mph88%29.98 "Hg6 mi
1:50 PM68 °FSprinkles. Partly sunny.21 mph88%29.98 "Hg6 mi
1:00 PM70 °FScattered clouds.21 mph83%29.95 "HgN/A
12:00 PM73 °FScattered clouds.17 mph78%29.95 "HgN/A
11:00 AM77 °FPartly sunny.15 mph69%29.95 "HgN/A
10:47 AM75 °FScattered clouds.15 mph69%29.95 "HgN/A
10:00 AM72 °FPartly sunny.14 mph78%29.95 "HgN/A
9:45 AM73 °FPartly sunny.14 mph74%29.95 "HgN/A
9:00 AM70 °FScattered clouds.7 mph88%29.95 "HgN/A
8:48 AM70 °FScattered clouds.9 mph83%29.95 "HgN/A
8:00 AM66 °FPartly sunny.6 mph94%29.92 "HgN/A
7:00 AM66 °FPassing clouds.8 mph83%29.89 "HgN/A
6:00 AM68 °FPassing clouds.7 mph88%29.83 "HgN/A
5:00 AM68 °FClear.9 mph83%29.83 "Hg10 mi
4:00 AM68 °FClear.9 mph83%29.86 "Hg10 mi
3:00 AM68 °FPassing clouds.6 mph94%29.86 "HgN/A
2:00 AM68 °FPassing clouds.No wind88%29.92 "HgN/A
Weather by CustomWeather, © 2015

See weather overviewHow to use our weather pages